Home > Weather > Watford > Past weeks

Flag for United Kingdom Past Weather in Watford, England, United Kingdom — Yesterday and Last 2 Weeks

Now
61 °F

Passing clouds.


Feels Like: 61 °F
Forecast: 56 / 71 °F
Wind: 7 mph from Southwest

Location: Northolt

Current Time: Jul 29, 2016 at 5:08:09 AM

Latest Report: Jul 29, 2016 at 3:50 AM


Visibility: N/A

Pressure: 29.83 "Hg

Humidity: 94%

Dew Point: 59 °F

Location of WatfordLocation

Past Weather in Watford — Graph

°F

Watford Temperature Yesterday

Maximum temperature yesterday: 70 °F (at 11:50 AM)
Minimum temperature yesterday: 57 °F (at 4:50 AM)
Average temperature yesterday: 64 °F

High & Low Weather Summary for the Past Weeks

 TemperatureHumidityPressure
High91 °F (Jul 19, 2:50 PM)100% (Jul 18, 4:50 AM)30.30 "Hg (Jul 18, 4:50 AM)
Low50 °F (Jul 15, 4:50 AM)29% (Jul 18, 4:50 PM)29.74 "Hg (Jul 20, 5:50 AM)
Average68 °F70%30.08 "Hg
* Reported Jul 14 3:50 AM — Jul 29 3:50 AM, Watford, Weather by CustomWeather, © 2016

Note: Actual official high and low records may vary slightly from our data, if they occured in-between our weather recording intervals... More about our weather records

Advertising

Watford Weather History for the Previous 24 Hours

Scroll right to see more
 ConditionsComfort  
Time TempWeatherWind HumidityBarometerVisibility
3:50 AM
Fri, Jul 29
61 °FPassing clouds.7 mph94%29.83 "HgN/A
2:50 AM61 °FPassing clouds.3 mph94%29.86 "HgN/A
1:50 AM63 °FPartly cloudy.12 mph88%29.86 "HgN/A
12:50 AM64 °FPassing clouds.7 mph88%29.86 "HgN/A
11:50 PM
Thu, Jul 28
63 °FPassing clouds.6 mph94%29.86 "HgN/A
10:50 PM64 °FPassing clouds.7 mph88%29.86 "HgN/A
9:50 PM66 °FPartly sunny.9 mph83%29.86 "HgN/A
8:50 PM66 °FScattered clouds.8 mph83%29.86 "HgN/A
7:50 PM68 °FScattered clouds.8 mph83%29.86 "HgN/A
6:50 PM66 °FScattered clouds.8 mph88%29.86 "HgN/A
5:50 PM66 °FPartly sunny.8 mph78%29.89 "HgN/A
4:50 PM66 °FMostly cloudy.12 mph78%29.89 "HgN/A
3:50 PM66 °FMostly cloudy.9 mph73%29.92 "HgN/A
2:50 PM68 °FLight rain. Overcast.13 mph60%29.92 "HgN/A
1:50 PM70 °FOvercast.9 mph50%29.92 "HgN/A
12:50 PM70 °FPartly sunny.13 mph50%29.95 "HgN/A
11:50 AM70 °FPartly sunny.9 mph53%29.95 "HgN/A
10:50 AM68 °FBroken clouds.5 mph56%29.98 "HgN/A
9:50 AM66 °FPartly sunny.5 mph56%29.98 "HgN/A
8:50 AM63 °FPartly sunny.3 mph64%29.98 "HgN/A
7:50 AM59 °FPassing clouds.3 mph77%29.98 "HgN/A
6:58 AM57 °FScattered clouds.2 mph82%29.98 "HgN/A
5:50 AM57 °FPassing clouds.3 mph77%29.98 "HgN/A
Weather by CustomWeather, © 2016

See weather overviewHow to use our weather pages